Location: Peebles
(55.6412°N, 3.1714°W)
Time: 17:30:59
(UTC+01:00)

Cosmos 1934 Rocket - Pass Details

Date: 27 January 2022
Orbit: 938 x 999 km, 83.0° (Epoch: 25 May)

Event Time Altitude Azimuth Distance (km) Brightness Sun altitude
Rises 05:21:39 0° 122° (ESE) 3,695 7.9 -24.1°
Reaches altitude 10° 05:25:45 10° 96° (E) 2,741 7.4 -23.5°
Maximum altitude 05:28:21 13° 71° (ENE) 2,528 7.1 -23.2°
Drops below altitude 10° 05:30:57 10° 46° (NE) 2,731 6.9 -22.8°
Sets 05:35:00 0° 21° (NNE) 3,669 7.3 -22.2°
